Home   Weather   Freising   Past weeks

Flag for Germany Past Weather in Freising, Bavaria, Germany — Yesterday and Last 2 Weeks

Now
34 °F

Fog.


Feels Like: 31 °F
Forecast: 33 / 54 °F
Wind: 3 mph from Northeast

Location: Munich / Franz Josef Strauss Airport

Current Time: Apr 30, 2017 at 7:23:20 am

Latest Report: Apr 30, 2017 at 6:50 am


Visibility: 4 mi

Pressure: 30.01 "Hg

Humidity: 93%

Dew Point: 32 °F

Location of FreisingLocation

Past Weather in Freising — Graph

°F

Freising Temperature Yesterday

Maximum temperature yesterday: 54 °F (at 3:20 pm)
Minimum temperature yesterday: 34 °F (at 3:50 am)
Average temperature yesterday: 43 °F

High & Low Weather Summary for the Past Weeks

 TemperatureHumidityPressure
High61 °F (Apr 24, 5:20 pm)100% (Apr 18, 2:20 pm)30.51 "Hg (Apr 18, 2:20 pm)
Low23 °F (Apr 21, 5:50 am)33% (Apr 24, 3:50 pm)29.74 "Hg (Apr 25, 3:20 am)
Average41 °F77%30.08 "Hg
* Reported Apr 15 5:20 am — Apr 30 5:50 am, Freising, Weather by CustomWeather, © 2017

Note: Actual official high and low records may vary slightly from our data, if they occured in-between our weather recording intervals... More about our weather records

Advertising

Freising Weather History for the Previous 24 Hours

Scroll right to see more
 ConditionsComfort  
Time TempWeatherWind HumidityBarometerVisibility
5:50 am
Sun, Apr 30
32 °FFog.5 mph100%29.98 "Hg6 mi
5:20 am32 °FFog.3 mph93%30.01 "HgN/A
4:50 am32 °FClear.5 mph93%29.98 "Hg10 mi
4:20 am32 °FFog.5 mph93%30.01 "HgN/A
3:50 am32 °FFog.5 mph100%30.01 "HgN/A
3:20 am32 °FFog.5 mph100%30.01 "HgN/A
2:50 am34 °FFog.3 mph93%30.01 "HgN/A
2:20 am32 °FClear.2 mph100%30.01 "Hg10 mi
1:50 am34 °FFog.3 mph93%30.01 "HgN/A
1:20 am34 °FClear.3 mph100%30.01 "Hg10 mi
12:50 am36 °FClear.3 mph93%30.01 "Hg10 mi
12:20 am36 °FClear.3 mph87%30.01 "Hg10 mi
11:50 pm
Sat, Apr 29
37 °FPassing clouds.3 mph87%30.04 "HgN/A
11:20 pm37 °FPassing clouds.5 mph81%30.04 "HgN/A
10:50 pm39 °FPassing clouds.5 mph87%30.04 "HgN/A
10:20 pm39 °FClear.2 mph87%30.04 "Hg10 mi
9:50 pm41 °FClear.2 mph81%30.04 "Hg10 mi
9:20 pm41 °FClear.3 mph76%30.04 "Hg10 mi
8:50 pm43 °FClear.3 mph71%30.04 "Hg10 mi
8:20 pm48 °FSunny.2 mph54%30.04 "Hg10 mi
7:50 pm52 °FSunny.2 mph47%30.04 "Hg10 mi
7:20 pm52 °FSunny.2 mph50%30.01 "Hg10 mi
6:50 pm52 °FSunny.2 mph47%30.01 "Hg10 mi
6:20 pm50 °FPartly sunny.1 mph58%30.04 "HgN/A
5:50 pm50 °FPartly sunny.5 mph50%30.04 "HgN/A
5:20 pm50 °FPartly sunny.5 mph50%30.04 "HgN/A
4:50 pm52 °FPartly sunny.3 mph50%30.04 "HgN/A
4:20 pm52 °FPartly sunny.8 mph50%30.04 "HgN/A
3:50 pm52 °FPartly sunny.6 mph54%30.04 "HgN/A
3:20 pm54 °FScattered clouds.7 mph51%30.04 "HgN/A
2:50 pm52 °FScattered clouds.7 mph47%30.04 "HgN/A
2:20 pm50 °FScattered clouds.5 mph50%30.04 "HgN/A
1:50 pm50 °FScattered clouds.7 mph54%30.07 "HgN/A
12:50 pm48 °FScattered clouds.7 mph62%30.07 "HgN/A
12:20 pm50 °FBroken clouds.9 mph58%30.07 "HgN/A
11:50 am46 °FBroken clouds.12 mph62%30.07 "HgN/A
11:20 am48 °FPartly sunny.8 mph62%30.07 "HgN/A
10:50 am46 °FPartly sunny.7 mph71%30.09 "HgN/A
9:50 am45 °FPartly sunny.10 mph71%30.09 "HgN/A
9:20 am43 °FPartly sunny.13 mph76%30.09 "HgN/A
8:50 am41 °FPartly sunny.12 mph81%30.09 "HgN/A
8:20 am39 °FSunny.9 mph93%30.09 "Hg10 mi
7:50 am37 °FSunny.8 mph93%30.07 "Hg10 mi
7:20 am37 °FSunny.8 mph93%30.07 "Hg10 mi
Weather by CustomWeather, © 2017

See weather overviewHow to use our weather pages